User: anonymous   Login
Location: Unspecified
(0.0000°N, 0.0000°E)
Time: 04:19:36
(UTC+01:00)
Language:

Cosmos 1125 Rocket - Orbit

View from above orbital plane
View from above orbital plane
View from above satellite
View from above satellite

Ground track
Ground track

The orbit data is extracted from the following two-line orbital elements,

1 11511U 79078B   14304.43259190  .00000353  00000-0  12894-3 0  9331
2 11511 074.0367 279.0484 0015173 032.6607 084.8322 14.36481344840808
Epoch (UTC): 31 October 2014 10:22:55
Eccentricity: 0.0015173
inclination: 74.0367°
perigee height: 759 km
apogee height: 781 km
right ascension of ascending node: 279.0484°
argument of perigee: 32.6607°
revolutions per day: 14.36481344
mean anomaly at epoch: 84.8322°
orbit number at epoch: 84080

The dashed part of the orbit path shows where the satellite is in the earth's shadow,  

DLR